Location: Unspecified
(47.0333°N, 0.0000°E)
Time: 02:07:48
(UTC+00:00)

OTV 5 (USA 277) - Pass Details

Date: 19 June 2019
Orbit: 299 x 335 km, 54.5° (Epoch: 13 July)

Event Time Altitude Azimuth Distance (km) Brightness Sun altitude
Exits shadow 21:41:36 21° 108° (ESE) 825 ? -12.8°
Drops below altitude 10° 21:43:09 10° 79° (E) 1,271 ? -12.9°
Enters shadow 22:58:16 -29° 243° (WSW) 6,887 ? -18.1°
Maximum altitude 23:15:00 42° 334° (NNW) 495 ? -18.8°
